Simultaneous Nadir Overpasses (SNOs) Predictions

Prediction of SNOs between GOES-15 and METOP-B Satellite Orbit:

Table of predicted SNOs for the next 14.0 days since TLE Epoch: 2/12/2022
Index Date Time (GOES-15) GOES-15 Lat,Lon METOP-B Lat,Lon Distance(km) Time Diff (sec)
1 02/12/2022 06:03:11 -0.01,-128.06 -0.09,-128.50 49.07 80
2 02/14/2022 18:01:23 0.00,-128.03 -0.02,-128.07 5.03 80
3 02/17/2022 06:02:23 -0.00,-127.92 0.06,-127.66 29.39 80
4 02/18/2022 18:18:34 0.00,-127.91 0.95,-132.23 492.02 80
5 02/19/2022 18:00:35 0.00,-127.87 -0.17,-127.23 73.69 80
6 02/21/2022 06:16:54 -0.00,-127.79 -0.90,-131.82 459.39 80
7 02/22/2022 05:58:54 -0.00,-127.75 0.22,-126.83 105.77 80
8 02/23/2022 18:15:05 0.00,-127.73 0.85,-131.38 417.15 80
9 02/24/2022 17:57:05 -0.00,-127.69 -0.28,-126.39 147.52 80
